Volver al catálogo

STPSAT-6

ActivoCienciaGEO
NORAD 49817·PAYLOAD·🇺🇸 United States

Lanzado Dec 7, 2021 desde Cape Canaveral Space Force Station

Loading…

TLE

ActualizadoSource: Space-Track

Época: Sep 14, 2026, 13:16 UTC

1 49817U 21118A   26257.55295747 -.00000052  00000-0  00000-0 0  9996
2 49817   0.5459  84.2490 0000931 212.9934 143.4324  1.00271933 17469

Sigue STPSAT-6 en tiempo real con AllMySat

Download on the App Store